Location: Roanoke
(37.2710°N, 79.9420°W)
Time: 11:36:16
(UTC-05:00)

Transit 2A - Pass Details

Date: 27 November 2019
Orbit: 602 x 957 km, 66.7° (Epoch: 14 December)

Event Time Altitude Azimuth Distance (km) Brightness Sun altitude
Rises 19:31:22 0° 331° (NNW) 2,863 9.3 -29.0°
Reaches altitude 10° 19:33:35 10° 331° (NNW) 1,971 8.4 -29.4°
Enters shadow 19:34:44 18° 330° (NNW) 1,517 7.7 -29.7°
Maximum altitude 19:37:59 83° 244° (WSW) 643 - -30.3°
Drops below altitude 10° 19:42:40 10° 156° (SSE) 2,090 - -31.2°
Sets 19:45:04 0° 156° (SSE) 3,052 - -31.7°
